Location: Overspoor
(51.4747°N, 5.6641°E)
Time: 22:15:42
(UTC+02:00)

X-37B - Pass Details

Date: 30 January 2022
Orbit: 328 x 343 km, 45.0° (Epoch: 15 May)

Event Time Altitude Azimuth Distance (km) Brightness Sun altitude
Rises 18:01:02 0° 210° (SSW) 2,111 5.2 -6.2°
Reaches altitude 10° 18:04:38 10° 162° (SSE) 1,272 3.2 -6.7°
Maximum altitude 18:04:58 10° 155° (SSE) 1,264 3.1 -6.8°
Drops below altitude 10° 18:05:18 10° 149° (SSE) 1,272 3.1 -6.8°
Enters shadow 18:07:38 - 112° (ESE) 1,703 3.4 -7.2°
